FW6120 Weather Reports


time (UTC)temp
C
wind
direction
speed
KPH
gust
KPH
rain 1hr
cm
rain 24hr
cm
rain mn
cm
humidity
%
barometer
mb
20260503223303 31 290 8.0 20.9 0.00 0.00 0.00 32 1009.3
20260503222803 31 261 6.4 20.9 0.00 0.00 0.00 31 1009.5
20260503222620 31 280 3.2 16.1 0.00 0.00 0.00 33 1009.4
20260503222113 31 278 4.8 20.9 0.00 0.00 0.00 35 1009.7
20260503221302 31 259 9.7 20.9 0.00 0.00 0.00 32 1009.7
20260503220800 32 232 3.2 14.5 0.00 0.00 0.00 32 1009.8
20260503220300 32 229 4.8 11.3 0.00 0.00 0.00 31 1009.9
20260503220150 32 246 4.8 11.3 0.00 0.00 0.00 29 1009.8
20260503215301 31 180 6.4 12.9 0.00 0.00 0.00 30 1009.8
20260503215113 32 264 0.0 20.9 0.00 0.00 0.00 30 1009.8
20260503214618 31 292 3.2 20.9 0.00 0.00 0.00 27 1010.1
20260503213801 31 69 6.4 20.9 0.00 0.00 0.00 25 1010.1
20260503213303 32 115 11.3 20.9 0.00 0.00 0.00 29 1010.2
20260503212802 31 218 3.2 20.9 0.00 0.00 0.00 24 1010.1
20260503212301 31 193 9.7 24.1 0.00 0.00 0.00 26 1010.0
20260503211801 31 195 6.4 24.1 0.00 0.00 0.00 25 1010.1
20260503211626 31 223 14.5 22.5 0.00 0.00 0.00 28 1010.2
20260503211112 32 222 16.1 22.5 0.00 0.00 0.00 26 1010.4
20260503210301 31 144 6.4 9.7 0.00 0.00 0.00 28 1010.3
20260503205801 31 208 6.4 20.9 0.00 0.00 0.00 26 1010.2
20260503205304 31 223 1.6 22.5 0.00 0.00 0.00 24 1010.3
20260503204800 31 202 1.6 25.7 0.00 0.00 0.00 27 1010.4
20260503204616 31 153 9.7 25.7 0.00 0.00 0.00 28 1010.4
20260503203802 31 179 9.7 16.1 0.00 0.00 0.00 27 1010.5
20260503203301 31 216 3.2 16.1 0.00 0.00 0.00 25 1010.9
20260503202800 32 214 11.3 12.9 0.00 0.00 0.00 28 1010.8
20260503202608 32 80 3.2 20.9 0.00 0.00 0.00 30 1010.7
20260503201802 31 50 1.6 20.9 0.00 0.00 0.00 25 1010.9
20260503201624 32 154 9.7 12.9 0.00 0.00 0.00 25 1010.9
20260503200801 31 112 1.6 17.7 0.00 0.00 0.00 25 1010.9
20260503200332 31 105 3.2 17.7 0.00 0.00 0.00 24 1010.9
20260503195801 31 168 9.7 12.9 0.00 0.00 0.00 27 1011.0
20260503195304 31 172 4.8 14.5 0.00 0.00 0.00 27 1011.1
20260503195112 31 126 9.7 14.5 0.00 0.00 0.00 30 1011.1
20260503194621 31 53 9.7 17.7 0.00 0.00 0.00 28 1011.3
20260503193803 31 154 3.2 17.7 0.00 0.00 0.00 25 1011.3
20260503193310 31 119 6.4 17.7 0.00 0.00 0.00 26 1011.4
20260503192802 31 124 9.7 17.7 0.00 0.00 0.00 31 1011.2
20260503192306 31 143 11.3 22.5 0.00 0.00 0.00 26 1011.5
20260503191801 31 96 4.8 25.7 0.00 0.00 0.00 25 1011.5
20260503191301 31 129 14.5 24.1 0.00 0.00 0.00 27 1011.5
20260503190802 31 96 14.5 27.4 0.00 0.00 0.00 31 1011.5
20260503190615 31 94 17.7 27.4 0.00 0.00 0.00 29 1011.7
20260503185801 31 82 14.5 22.5 0.00 0.00 0.00 36 1011.6
20260503185301 30 112 6.4 22.5 0.00 0.00 0.00 30 1011.6
20260503184801 30 132 11.3 20.9 0.00 0.00 0.00 29 1011.8
20260503184613 30 223 3.2 20.9 0.00 0.00 0.00 34 1011.6
20260503183803 29 75 8.0 14.5 0.00 0.00 0.00 31 1011.6
20260503183615 29 20 1.6 11.3 0.00 0.00 0.00 39 1011.9
20260503183116 28 278 1.6 9.7 0.00 0.00 0.00 42 1012.0
20260503182304 28 276 3.2 9.7 0.00 0.00 0.00 39 1012.0
20260503181803 28 304 0.0 9.7 0.00 0.00 0.00 39 1012.1
20260503181301 27 309 4.8 9.7 0.00 0.00 0.00 43 1012.0
20260503181116 27 298 4.8 11.3 0.00 0.00 0.00 46 1012.2
20260503180301 26 298 3.2 11.3 0.00 0.00 0.00 43 1012.1
20260503175800 26 323 4.8 11.3 0.00 0.00 0.00 44 1012.3
20260503175301 26 334 4.8 11.3 0.00 0.00 0.00 44 1012.3
20260503174801 26 302 6.4 11.3 0.00 0.00 0.00 44 1012.3
20260503174303 26 311 4.8 12.9 0.00 0.00 0.00 44 1012.3
20260503173801 25 335 3.2 12.9 0.00 0.00 0.00 44 1012.5
20260503173300 25 312 1.6 11.3 0.00 0.00 0.00 45 1012.2
20260503172800 25 292 6.4 11.3 0.00 0.00 0.00 46 1012.4
20260503172616 25 331 6.4 9.7 0.00 0.00 0.00 45 1012.5
20260503171801 25 321 3.2 6.4 0.00 0.00 0.00 47 1012.5
20260503171302 24 311 3.2 6.4 0.00 0.00 0.00 49 1012.5
20260503170801 24 226 1.6 4.8 0.00 0.00 0.00 46 1012.6
20260503170301 23 225 3.2 4.8 0.00 0.00 0.00 49 1012.7
20260503160213 16 191 1.6 4.8 0.00 0.00 0.00 79 1012.8
20260503150801 11 154 0.0 3.2 0.00 0.00 0.00 98 1013.1
20260503150301 11 154 0.0 3.2 0.00 0.00 0.00 98 1013.1
20260503140303 8 154 1.6 3.2 0.00 0.00 0.00 99 1013.0
20260503130801 7 155 0.0 0.0 0.00 0.00 0.00 98 1012.7
20260503130629 7 155 0.0 0.0 0.00 0.00 0.00 98 1012.8
20260503110802 8 155 0.0 0.0 0.00 0.00 0.00 98 1013.2
20260503110314 8 154 0.0 0.0 0.00 0.00 0.00 98 1013.4
20260503090300 10 154 0.0 0.0 0.00 0.00 0.00 96 1013.2
20260503081302 11 154 0.0 0.0 0.00 0.00 0.00 96 1013.3
20260503080801 11 154 0.0 0.0 0.00 0.00 0.00 95 1013.6
20260503080615 11 154 0.0 0.0 0.00 0.00 0.00 95 1013.5
20260503080125 12 154 0.0 0.0 0.00 0.00 0.00 94 1013.4
20260503072801 12 154 0.0 1.6 0.00 0.00 0.00 94 1013.6
20260503072305 13 154 0.0 3.2 0.00 0.00 0.00 94 1013.7
20260503071801 13 154 1.6 3.2 0.00 0.00 0.00 94 1013.7
20260503071305 13 154 0.0 0.0 0.00 0.00 0.00 94 1013.4
20260503070904 13 153 0.0 3.2 0.00 0.00 0.00 94 1013.5
20260503054805 15 120 1.6 1.6 0.00 0.00 0.00 86 1013.9
20260503054301 15 119 0.0 1.6 0.00 0.00 0.00 87 1013.9
20260503053801 15 119 0.0 0.0 0.00 0.00 0.00 86 1013.8
20260503053303 15 119 0.0 0.0 0.00 0.00 0.00 85 1013.8
20260503052804 15 119 0.0 0.0 0.00 0.00 0.00 85 1013.7
20260503052301 15 119 0.0 1.6 0.00 0.00 0.00 84 1013.9
20260503051802 15 119 0.0 1.6 0.00 0.00 0.00 84 1014.0
20260503051617 15 119 0.0 0.0 0.00 0.00 0.00 83 1014.0
20260503051131 16 119 0.0 0.0 0.00 0.00 0.00 82 1014.1
20260503050302 16 119 0.0 1.6 0.00 0.00 0.00 82 1014.0
20260503045801 16 119 0.0 1.6 0.00 0.00 0.00 82 1013.8
20260503045304 16 119 0.0 0.0 0.00 0.00 0.00 81 1014.0
20260503045155 16 119 0.0 0.0 0.00 0.00 0.00 80 1014.0
20260503044301 16 119 0.0 0.0 0.00 0.00 0.00 79 1013.9
20260503043802 16 119 0.0 0.0 0.00 0.00 0.00 79 1014.1
20260503043301 17 119 0.0 0.0 0.00 0.00 0.00 79 1013.9
20260503042805 17 119 0.0 0.0 0.00 0.00 0.00 78 1014.0
20260503042304 17 119 0.0 1.6 0.00 0.00 0.00 76 1013.9
20260503041803 17 119 0.0 6.4 0.00 0.00 0.00 75 1013.7
20260503041301 18 119 0.0 6.4 0.00 0.00 0.00 73 1013.6
20260503040904 18 164 0.0 3.2 0.00 0.00 0.00 71 1013.6
20260503035804 19 220 0.0 3.2 0.00 0.00 0.00 68 1013.6
20260503035301 19 220 0.0 3.2 0.00 0.00 0.00 66 1013.4
20260503034804 19 220 1.6 11.3 0.00 0.00 0.00 65 1013.5
20260503034304 20 220 3.2 11.3 0.00 0.00 0.00 65 1013.0
20260503033807 20 230 3.2 12.9 0.00 0.00 0.00 64 1013.0
20260503033305 20 192 8.0 14.5 0.00 0.00 0.00 64 1013.0
20260503032802 20 217 8.0 16.1 0.00 0.00 0.00 64 1012.8
20260503032304 20 233 8.0 20.9 0.00 0.00 0.00 63 1012.7
20260503031804 21 237 6.4 20.9 0.00 0.00 0.00 63 1012.8
20260503031627 21 220 8.0 20.9 0.00 0.00 0.00 62 1012.4
20260503031130 21 218 3.2 20.9 0.00 0.00 0.00 61 1012.4
20260503030303 21 224 6.4 16.1 0.00 0.00 0.00 61 1012.5
20260503025805 21 214 8.0 16.1 0.00 0.00 0.00 61 1012.3
20260503025301 22 198 3.2 4.8 0.00 0.00 0.00 63 1012.3
20260503024827 22 198 1.6 4.8 0.00 0.00 0.00 62 1012.2
20260503024301 22 211 3.2 4.8 0.00 0.00 0.00 59 1012.2
20260503023804 22 212 3.2 4.8 0.00 0.00 0.00 58 1012.1
20260503023301 23 212 3.2 4.8 0.00 0.00 0.00 58 1012.0
20260503022802 23 212 1.6 4.8 0.00 0.00 0.00 57 1012.0
20260503022310 23 212 1.6 4.8 0.00 0.00 0.00 56 1011.9
20260503021806 23 212 1.6 4.8 0.00 0.00 0.00 56 1012.0
20260503021315 23 212 1.6 4.8 0.00 0.00 0.00 56 1012.0
20260503020802 23 213 1.6 4.8 0.00 0.00 0.00 56 1011.9
20260503020304 24 213 0.0 4.8 0.00 0.00 0.00 55 1011.7
20260503015802 23 213 1.6 3.2 0.00 0.00 0.00 57 1011.7
20260503015301 23 213 3.2 6.4 0.00 0.00 0.00 57 1011.8
20260503014802 23 186 1.6 6.4 0.00 0.00 0.00 57 1011.8
20260503014300 23 229 3.2 9.7 0.00 0.00 0.00 57 1011.7
20260503013803 23 219 1.6 9.7 0.00 0.00 0.00 57 1011.7
20260503013310 23 189 3.2 11.3 0.00 0.00 0.00 58 1011.9
20260503012801 23 229 1.6 11.3 0.00 0.00 0.00 57 1011.9
20260503012300 23 203 3.2 9.7 0.00 0.00 0.00 57 1011.6
20260503011800 23 208 4.8 9.7 0.00 0.00 0.00 57 1011.7
20260503011625 23 225 4.8 9.7 0.00 0.00 0.00 57 1011.9
20260503011108 23 210 3.2 11.3 0.00 0.00 0.00 57 1012.0
20260503010309 23 212 3.2 11.3 0.00 0.00 0.00 56 1011.7
20260503005802 23 208 6.4 11.3 0.00 0.00 0.00 57 1011.8
20260503005301 24 213 4.8 14.5 0.00 0.00 0.00 56 1011.8
20260503004800 24 212 8.0 14.5 0.00 0.00 0.00 56 1011.7
20260503004302 24 231 8.0 12.9 0.00 0.00 0.00 57 1011.6
20260503003800 24 215 4.8 11.3 0.00 0.00 0.00 57 1011.7
20260503003301 24 236 4.8 12.9 0.00 0.00 0.00 57 1011.8
20260503002801 24 243 1.6 12.9 0.00 0.00 0.00 57 1011.9
20260503002300 24 241 8.0 11.3 0.00 0.00 0.00 54 1011.9
20260503001803 25 213 6.4 6.4 0.00 0.00 0.00 53 1011.8
20260503001655 25 235 0.0 6.4 0.00 0.00 0.00 53 1011.7
20260503000805 25 299 3.2 6.4 0.00 0.00 0.00 53 1011.7
20260503000304 25 326 3.2 9.7 0.00 0.00 0.00 54 1011.7
20260503000141 25 216 0.0 9.7 0.00 0.00 0.00 53 1011.7
20260502235304 25 312 6.4 11.3 0.00 0.00 0.00 53 1011.8
20260502234801 24 303 6.4 11.3 0.00 0.00 0.00 55 1012.0
20260502234308 25 303 3.2 11.3 0.00 0.00 0.00 52 1012.0
20260502233801 25 299 4.8 11.3 0.00 0.00 0.00 54 1012.1
20260502233302 25 327 0.0 9.7 0.00 0.00 0.00 53 1012.1
20260502232800 25 12 4.8 11.3 0.00 0.00 0.00 55 1012.0
20260502232300 25 354 8.0 11.3 0.00 0.00 0.00 55 1012.4
20260502231801 25 8 3.2 12.9 0.00 0.00 0.00 58 1012.4
20260502231306 24 328 6.4 12.9 0.00 0.00 0.00 53 1012.4
20260502230915 24 285 0.0 12.9 0.00 0.00 0.00 59 1012.6
20260502230834 24 351 4.8 11.3 0.00 0.00 0.00 55 1012.6
20260502225300 23 322 4.8 9.7 0.00 0.00 0.00 59 1012.6
20260502224804 23 278 3.2 11.3 0.00 0.00 0.00 57 1012.6
20260502224654 23 225 4.8 16.1 0.00 0.00 0.00 58 1012.7